DECAYED

COSMOS 2251 DEB, 34442 (Decayed)

Orbit data source: Space-Track

COSMOS 2251 DEB, 34442 was space debris in LEO originally from a launch on Wed, 16 Jun 1993 UTC launched from the Plesetsk Missile And Space Complex (PKMTR). The debris from Iridium 33, an American commercial communications satellite, has been tracked extensively since its accidental collision with the defunct Russian satellite Cosmos 2251 in 2009. This event, occurring at high speed in low Earth orbit (LEO), generated thousands of pieces of space debris, significantly increasing the risk of further collisions. The Iridium 33 debris cloud has impacted space traffic management and orbital debris mitigation strategies, making it a subject of ongoing study in space situational awareness.

Loading next visibility...
Identifier
34442, 1993-036SK
Orbit
Decayed
Country
Flag of CISCIS
Related business
Manufacturer
Unknown
Mission
Decayed spacecraft
Bus & Motor
Unknown
Mass
Unknown
Launch date (UTC)
1993-06-16 (33 years ago)
Launch vehicle
Unknown
Launch site
Plesetsk Missile And Space Complex (PKMTR)
Object type
Payload
Rocket body
Debris
Shape & HBR
Unknown shape, 0.1 m
Radar Cross Section
Small (<0.1 m²)

Expand to show TLE details & history
Last TLE update: 7 months ago

TLE from 7 months ago
0 COSMOS 2251 DEB
1 34442U 93036SK  25186.89116612  .02879383  00000-0  10482-1 0  9990
2 34442  73.9664   2.1946 0011416 216.4795 143.5659 15.84763561875798
Epoch: 2025-07-05T21:23Z
TLE epoch observation values (Epoch: 2025-07-05T21:23:16.752Z)
Latitude
-0.00007°
Longitude
117.25207°
Altitude
325.928 km
Speed
7.709 km/s
True Right ascension
00h 08m 46s
True Declination
0° 00' 00"
Sunlit
Object was in daylight at epoch
Visualization orbit readout
Latitude
Unknown
Longitude
Unknown
Altitude
Unknown
Speed
Unknown
Apparent Right ascension
Unknown
Apparent Declination
Unknown
Sunlit
N/A
Visualization observer readout
Local Sidereal Time
21:11:26
Azimuth
Unknown
Elevation
Unknown
Doppler factor
Unknown
Orbital elements
Apogee altitude
322.099 km
Perigee altitude
306.819 km
Semi-major axis
6,692.596 km
Eccentricity
0.00114
Inclination
73.9664°
RAAN
2.1946°
Arg. of periapsis
216.4795°
True anomaly
143.6435°
Mean anomaly
143.5659°
Eccentric anomaly
143.60471°
Mean motion
3.96416 °/min
Orbital period
90.81 mins
BSTAR
0.010482
Loading maneuver chart data...
Computing Atmospheric mass density...
Loading historical data...
Loading historical data...
Loading historical data...
Loading historical data...
Loading historical data...
Loading historical data...
Loading historical data...

Documentation

Showing up to 5 results
|